"Pseudo-MPEC" for C3LJKA2

Created 2020 Oct 19 14:07:10 UT using Find_Orb

Click here for an explanation of pseudo-MPECs

 
 Astrometry: 
     C3LJKA2  C2020 10 17.31696602 28 06.71 -00 00 26.0    ~AHAb 21.06GVNEOCPG96
     C3LJKA2  C2020 10 17.32210702 28 06.41 -00 00 07.4    ~AHAb 20.73GVNEOCPG96
     C3LJKA2  C2020 10 17.32724602 28 06.06 +00 00 13.1    ~AHAb 21.48GVNEOCPG96
     C3LJKA2  C2020 10 17.33238202 28 05.80 +00 00 31.9    ~AHAb 21.02GVNEOCPG96
     C3LJKA2 KC2020 10 17.41819202 28 00.58 +00 05 56.8    ~AHAq 21.17GVNEOCPI52
     C3LJKA2 KC2020 10 17.41972702 28 00.49 +00 06 02.7    ~AHAq 20.99GVNEOCPI52
     C3LJKA2 KC2020 10 17.42279702 28 00.29 +00 06 13.6    ~AHAq 19.80GVNEOCPI52
     C3LJKA2 KC2020 10 18.29787102 27 15.58 +01 02 30.5    ~AI7b 21.02GVNEOCPI52
     C3LJKA2 KC2020 10 18.30094002 27 15.42 +01 02 42.6    ~AI7b 20.80GVNEOCPI52
     C3LJKA2 KC2020 10 18.30401002 27 15.17 +01 02 54.9    ~AI7b 20.79GVNEOCPI52
     C3LJKA2 KC2020 10 18rLJAstrometry$Te4nHGWv9]K]VOTR5redacted;_hVsg:bclickL01
     C3LJKA2 KC2020 10 18Q$NIhereQxNfor_dSfc1cVn4n%=1-aycZA#vr\JvgIJLg@%S]jpnL01
     C3LJKA2 KC2020 10 189_brd)/K)L_J*[vf_r-.vYO^)T)yHB^0:;explanationNC$SQ8*L01
     C3LJKA2 KC2020 10 18.99087902 26 37.25 +01 48 18.8    ~AJ0M 20.7 GVNEOCPI93
     C3LJKA2 KC2020 10 19.00232402 26 36.43 +01 49 04.6    ~AJ0M 20.7 GVNEOCPI93
     C3LJKA2 KC2020 10 19.26049602 26 22.32 +02 06 30.3    ~AJ6b 19.78GVNEOCPI52
     C3LJKA2 KC2020 10 19.26209202 26 22.21 +02 06 38.7    ~AJ6b 20.98GVNEOCPI52
     C3LJKA2 KC2020 10 19.26368902 26 22.08 +02 06 44.7    ~AJ6b 21.77GVNEOCPI52

Station data:
(G96) Mt. Lemmon Survey  (N32.442754 W110.788720)  US/Arizona.  Observers T.
   A. Pruyne, B. M. Africano, E. J. Christensen, G. A. Farneth, D. C. Fuls,
   A. R. Gibbs, A. D. Grauer, H. Gröller, J. A. Johnson, R. A. Kowalski, S.
   M. Larson, G. J. Leonard, D. Rankin, R. L. Seaman, F. C. Shelly. 1.5-m
   reflector + 10K CCD.
(I52) Steward Observatory, Mt. Lemmon Station  (N32.442547 W110.788920)
   US/Arizona.  Observers T. A. Pruyne, B. M. Africano, E. J. Christensen, G.
   A. Farneth, D. C. Fuls, A. R. Gibbs, A. D. Grauer, H. Gröller, J. A.
   Johnson, R. A. Kowalski, S. M. Larson, G. J. Leonard, D. Rankin, R. L.
   Seaman, F. C. Shelly. 1.0-m reflector + CCD.
(I93) St Pardon de Conques  (N44.558710 W0.203000)  France.  Observer F.
   Losse. 0.40-m f/3.7 reflector + CCD.
(L01) Višnjan Observatory, Tičan  (N45.290900 E13.749300)  Croatia.
   Observers K. Korlević, E. Pettarin. Measurer E. Pettarin. 1.0-m f/2.9
   reflector + CCD.

Orbital elements:  C3LJKA2
   Perihelion 2020 Nov 19.180627 +/- 0.278 TT =  4:20:06 (JD 2459172.680627)
Epoch 2020 Oct 19.0 TT = JDT 2459141.5   Earth MOID: 0.2558   Ju: 0.6723
M 354.40798488 +/- 0.55             (J2000 ecliptic)          AutoNEOCP
n   0.17934261 +/- 0.0185           Peri.   19.80633 +/- 0.28
a   3.11420398 +/- 0.214            Node    35.19769 +/- 0.010
e   0.6045411 +/- 0.0253            Incl.   20.74375 +/- 0.51
P   5.50                   H 22.5   G  0.15   U 10.1  
q 1.23153958 +/- 0.0063    Q 4.99686838 +/- 0.45
From 18 observations 2020 Oct. 17-19 (46.7 hr); mean residual 0".47
Residuals in arcseconds: 
201017 G96  .10-  .46+    201017 I52  .21-  .81-    201018 L01  .07-  .33-    
201017 G96  .09+  .38-    201018 I52  .21+  .37-    201018 I93  .36+  .99+    
201017 G96  .48-  .69+    201018 I52  .76+  .31-    201019 I93  .76-  .76+    
201017 G96  .30+  .06+    201018 I52  .04-  .05-    201019 I52  .12+  1.6-    
201017 I52  .00   .13-    201018 L01  .16+  .09-    201019 I52  .07+  .30+    
201017 I52  .03+  .06-    201018 L01  .13+  .03-    201019 I52  .28-  .19-    

Ephemerides (geocentric):
Date (UTC) HH   RA              Dec         delta   r     elong  mag " sig PA
---- -- -- --  -------------   -----------  ------ ------ -----  --- ---- ---
2020 10 19 14  02 26 02.905   +02 28 44.56  .29606 1.2849 165.8 21.1 .634 132
2020 10 19 15  02 26 00.467   +02 31 35.71  .29587 1.2848 165.8 21.1 .643 130
2020 10 19 16  02 25 58.024   +02 34 27.12  .29568 1.2847 165.9 21.1 .652 128
2020 10 19 17  02 25 55.575   +02 37 18.77  .29549 1.2845 165.9 21.1 .662 126
2020 10 19 18  02 25 53.120   +02 40 10.67  .29530 1.2844 166.0 21.1 .672 124
2020 10 19 19  02 25 50.659   +02 43 02.81  .29511 1.2842 166.1 21.0 .683 123
2020 10 19 20  02 25 48.192   +02 45 55.20  .29492 1.2841 166.1 21.0 .695 121
2020 10 19 21  02 25 45.719   +02 48 47.84  .29473 1.2840 166.2 21.0 .707 119
2020 10 19 22  02 25 43.241   +02 51 40.72  .29454 1.2838 166.2 21.0 .720 117
2020 10 19 23  02 25 40.756   +02 54 33.85  .29436 1.2837 166.3 21.0 .734 116
2020 10 20 00  02 25 38.266   +02 57 27.23  .29417 1.2835 166.4 21.0 .748 114
2020 10 20 01  02 25 35.770   +03 00 20.85  .29398 1.2834 166.4 21.0 .763 112
2020 10 20 02  02 25 33.267   +03 03 14.72  .29380 1.2833 166.5 21.0 .779 111
2020 10 20 03  02 25 30.760   +03 06 08.83  .29361 1.2831 166.5 21.0 .795 109
2020 10 20 04  02 25 28.246   +03 09 03.18  .29343 1.2830 166.6 21.0 .812 107
2020 10 20 05  02 25 25.726   +03 11 57.78  .29324 1.2828 166.7 21.0 .830 106
2020 10 20 06  02 25 23.201   +03 14 52.63  .29306 1.2827 166.7 21.0 .849 104
2020 10 20 07  02 25 20.670   +03 17 47.72  .29287 1.2826 166.8 21.0 .868 103
2020 10 20 08  02 25 18.133   +03 20 43.06  .29269 1.2824 166.8 21.0 .888 101
2020 10 20 09  02 25 15.590   +03 23 38.64  .29251 1.2823 166.9 21.0 .908 100
2020 10 20 10  02 25 13.041   +03 26 34.46  .29232 1.2822 167.0 21.0 .930  99
2020 10 20 11  02 25 10.486   +03 29 30.53  .29214 1.2820 167.0 21.0 .952  97
2020 10 20 12  02 25 07.926   +03 32 26.84  .29196 1.2819 167.1 21.0 .974  96
2020 10 20 13  02 25 05.360   +03 35 23.40  .29178 1.2817 167.1 21.0 1.00  94
2020 10 20 14  02 25 02.788   +03 38 20.20  .29160 1.2816 167.2 21.0 1.02  93
2020 10 20 15  02 25 00.210   +03 41 17.24  .29142 1.2815 167.3 21.0 1.05  92
2020 10 20 16  02 24 57.627   +03 44 14.53  .29124 1.2813 167.3 21.0 1.07  91
2020 10 20 17  02 24 55.037   +03 47 12.05  .29106 1.2812 167.4 21.0 1.10  89
2020 10 20 18  02 24 52.442   +03 50 09.83  .29088 1.2811 167.5 21.0 1.13  88
2020 10 20 19  02 24 49.842   +03 53 07.84  .29070 1.2809 167.5 21.0 1.15  87
2020 10 20 20  02 24 47.235   +03 56 06.10  .29052 1.2808 167.6 21.0 1.18  86
2020 10 20 21  02 24 44.623   +03 59 04.59  .29034 1.2807 167.6 21.0 1.21  85
2020 10 20 22  02 24 42.004   +04 02 03.34  .29016 1.2805 167.7 21.0 1.24  84
2020 10 20 23  02 24 39.380   +04 05 02.32  .28999 1.2804 167.8 21.0 1.27  83
2020 10 21 00  02 24 36.751   +04 08 01.54  .28981 1.2802 167.8 20.9 1.30  82
2020 10 21 01  02 24 34.115   +04 11 01.01  .28963 1.2801 167.9 20.9 1.33  81
2020 10 21 02  02 24 31.474   +04 14 00.71  .28946 1.2800 167.9 20.9 1.37  80
2020 10 21 03  02 24 28.827   +04 17 00.66  .28928 1.2798 168.0 20.9 1.40  79
2020 10 21 04  02 24 26.175   +04 20 00.85  .28911 1.2797 168.1 20.9 1.43  78
2020 10 21 05  02 24 23.516   +04 23 01.27  .28893 1.2796 168.1 20.9 1.47  77
2020 10 21 06  02 24 20.852   +04 26 01.94  .28876 1.2794 168.2 20.9 1.50  76
2020 10 21 07  02 24 18.182   +04 29 02.85  .28858 1.2793 168.3 20.9 1.54  75
2020 10 21 08  02 24 15.507   +04 32 04.00  .28841 1.2792 168.3 20.9 1.58  74
2020 10 21 09  02 24 12.826   +04 35 05.38  .28824 1.2790 168.4 20.9 1.61  73
2020 10 21 10  02 24 10.139   +04 38 07.01  .28807 1.2789 168.4 20.9 1.65  72
2020 10 21 11  02 24 07.446   +04 41 08.87  .28789 1.2788 168.5 20.9 1.69  71
2020 10 21 12  02 24 04.748   +04 44 10.98  .28772 1.2786 168.6 20.9 1.73  71
2020 10 21 13  02 24 02.044   +04 47 13.32  .28755 1.2785 168.6 20.9 1.77  70